WV5G-13 Weather Reports


Display with metric or nautical units.
time (UTC)temp
F
wind
direction
speed
MPH
gust
MPH
rain 1hr
in
rain 24hr
in
rain mn
in
humidity
%
barometer
mb
20260901083326 78 160 1.0 7.0 0.00 0.00 0.00 43 1016.9
20260901082825 78 158 5.0 13.0 0.00 0.00 0.00 43 1016.8
20260901082321 78 153 4.0 8.0 0.00 0.00 0.00 43 1016.7
20260901081816 78 131 7.0 11.0 0.00 0.00 0.00 43 1016.8
20260901081316 79 144 3.0 13.0 0.00 0.00 0.00 42 1016.6
20260901080811 79 153 4.0 13.0 0.00 0.00 0.00 42 1016.9
20260901080310 79 136 6.0 9.0 0.00 0.00 0.00 42 1016.8
20260901075804 79 148 6.0 11.0 0.00 0.00 0.00 41 1016.6
20260901075259 80 160 3.0 11.0 0.00 0.00 0.00 41 1016.6
20260901074754 80 141 8.0 14.0 0.00 0.00 0.00 41 1016.7
20260901074249 79 172 7.0 10.0 0.00 0.00 0.00 41 1016.7
20260901073745 80 143 6.0 11.0 0.00 0.00 0.00 41 1016.7
20260901073240 80 142 8.0 12.0 0.00 0.00 0.00 41 1016.6
20260901072736 80 156 8.0 12.0 0.00 0.00 0.00 41 1016.9
20260901072230 80 138 9.0 11.0 0.00 0.00 0.00 41 1016.8
20260901071724 80 140 7.0 11.0 0.00 0.00 0.00 41 1016.8
20260901071218 79 159 6.0 12.0 0.00 0.00 0.00 41 1016.9
20260901070712 79 139 4.0 11.0 0.00 0.00 0.00 41 1017.0
20260901070208 80 148 11.0 12.0 0.00 0.00 0.00 41 1016.9
20260901065707 80 131 4.0 9.0 0.00 0.00 0.00 41 1016.9
20260901065202 79 139 2.0 9.0 0.00 0.00 0.00 42 1017.2
20260901064659 78 162 3.0 7.0 0.00 0.00 0.00 43 1017.2
20260901064155 77 138 6.0 7.0 0.00 0.00 0.00 45 1016.9
20260901063652 77 132 3.0 7.0 0.00 0.00 0.00 46 1017.0
20260901063148 77 128 3.0 5.0 0.00 0.00 0.00 46 1016.8
20260901062643 77 114 3.0 5.0 0.00 0.00 0.00 46 1016.9
20260901062139 77 143 5.0 6.0 0.00 0.00 0.00 46 1017.0
20260901061635 77 129 4.0 5.0 0.00 0.00 0.00 46 1017.2
20260901061134 77 112 3.0 5.0 0.00 0.00 0.00 47 1017.0
20260901060629 77 124 4.0 6.0 0.00 0.00 0.00 46 1016.8
20260901060125 76 123 4.0 5.0 0.00 0.00 0.00 47 1016.9
20260901055620 76 127 7.0 7.0 0.00 0.00 0.00 46 1016.9
20260901055117 76 125 4.0 6.0 0.00 0.00 0.00 48 1016.8
20260901054614 76 128 7.0 7.0 0.00 0.00 0.00 47 1017.1
20260901054109 77 121 5.0 7.0 0.00 0.00 0.00 46 1016.9
20260901053605 77 112 4.0 7.0 0.00 0.00 0.00 46 1016.9
20260901053100 77 122 5.0 7.0 0.00 0.00 0.00 46 1017.1
20260901052555 77 122 7.0 7.0 0.00 0.00 0.00 46 1017.1
20260901052050 78 122 5.0 9.0 0.00 0.00 0.00 46 1016.8
20260901051549 77 136 5.0 6.0 0.00 0.00 0.00 46 1017.0
20260901051049 77 117 5.0 5.0 0.00 0.00 0.00 47 1016.8
20260901050544 77 124 3.0 5.0 0.00 0.00 0.00 48 1016.8
20260901050039 77 122 4.0 7.0 0.00 0.00 0.00 48 1016.8
20260901045535 77 125 5.0 7.0 0.00 0.00 0.00 48 1016.9
20260901045035 77 113 3.0 6.0 0.00 0.00 0.00 48 1017.0
20260901044531 77 120 5.0 6.0 0.00 0.00 0.00 48 1016.9
20260901044026 77 121 3.0 5.0 0.00 0.00 0.00 48 1016.9
20260901043522 78 131 5.0 5.0 0.00 0.00 0.00 47 1016.8
20260901043017 78 142 3.0 5.0 0.00 0.00 0.00 47 1016.6
20260901042516 78 133 3.0 5.0 0.00 0.00 0.00 46 1016.8
20260901042012 79 140 3.0 6.0 0.00 0.00 0.00 46 1016.6
20260901041507 78 138 5.0 5.0 0.00 0.00 0.00 47 1016.7
20260901041002 78 118 3.0 5.0 0.00 0.00 0.00 46 1016.6
20260901040456 79 143 4.0 6.0 0.00 0.00 0.00 46 1016.6
20260901035955 79 135 4.0 5.0 0.00 0.00 0.00 46 1016.5
20260901035454 79 140 5.0 5.0 0.00 0.00 0.00 46 1016.5
20260901034953 79 119 3.0 4.0 0.00 0.00 0.00 46 1016.7
20260901034453 79 135 4.0 5.0 0.00 0.00 0.00 46 1016.2
20260901033948 79 121 6.0 7.0 0.00 0.00 0.00 44 1016.2
20260901033447 80 114 2.0 4.0 0.00 0.00 0.00 44 1016.1
20260901032945 80 135 4.0 5.0 0.00 0.00 0.00 44 1016.1
20260901032440 80 127 4.0 4.0 0.00 0.00 0.00 43 1016.1
20260901031935 81 116 3.0 6.0 0.00 0.00 0.00 41 1016.1
20260901031431 81 132 3.0 4.0 0.00 0.00 0.00 41 1016.0
20260901030930 81 173 2.0 4.0 0.00 0.00 0.00 41 1015.8
20260901030426 81 188 1.0 4.0 0.00 0.00 0.00 40 1015.9
20260901025925 82 130 3.0 5.0 0.00 0.00 0.00 40 1016.0
20260901025421 82 146 3.0 6.0 0.00 0.00 0.00 40 1015.6
20260901024919 82 136 3.0 5.0 0.00 0.00 0.00 39 1015.4
20260901024414 82 145 3.0 5.0 0.00 0.00 0.00 39 1015.4
20260901023913 83 174 3.0 5.0 0.00 0.00 0.00 38 1015.2
20260901023408 83 139 5.0 6.0 0.00 0.00 0.00 38 1015.1
20260901022903 83 134 3.0 7.0 0.00 0.00 0.00 38 1015.0
20260901022359 83 135 4.0 6.0 0.00 0.00 0.00 38 1014.8
20260901021853 83 153 4.0 4.0 0.00 0.00 0.00 37 1014.8
20260901021349 84 147 3.0 6.0 0.00 0.00 0.00 36 1014.7
20260901020844 85 130 3.0 6.0 0.00 0.00 0.00 35 1014.5
20260901020339 85 170 5.0 8.0 0.00 0.00 0.00 35 1014.6
20260901015838 85 147 3.0 10.0 0.00 0.00 0.00 34 1014.5
20260901015335 86 189 3.0 9.0 0.00 0.00 0.00 34 1014.3
20260901014834 86 161 3.0 7.0 0.00 0.00 0.00 34 1013.9
20260901014331 86 151 4.0 7.0 0.00 0.00 0.00 34 1014.2
20260901013826 86 150 3.0 6.0 0.00 0.00 0.00 34 1014.2
20260901013321 86 154 6.0 7.0 0.00 0.00 0.00 33 1014.1
20260901012817 87 146 3.0 10.0 0.00 0.00 0.00 32 1014.0
20260901012311 87 142 5.0 7.0 0.00 0.00 0.00 32 1014.0
20260901011808 87 139 3.0 7.0 0.00 0.00 0.00 32 1014.0
20260901011302 88 144 2.0 9.0 0.00 0.00 0.00 31 1013.8
20260901010756 88 153 5.0 10.0 0.00 0.00 0.00 30 1014.1
20260901010250 89 155 6.0 10.0 0.00 0.00 0.00 30 1014.0
20260901005749 89 196 7.0 11.0 0.00 0.00 0.00 30 1013.9
20260901005245 90 158 6.0 12.0 0.00 0.00 0.00 29 1013.8
20260901004744 90 180 6.0 12.0 0.00 0.00 0.00 29 1013.7
20260901004239 90 167 6.0 12.0 0.00 0.00 0.00 29 1013.7
20260901003733 91 196 9.0 12.0 0.00 0.00 0.00 28 1013.9
20260901003233 91 161 10.0 15.0 0.00 0.00 0.00 28 1013.8
20260901002727 91 149 10.0 13.0 0.00 0.00 0.00 28 1013.7
20260901002222 92 189 12.0 13.0 0.00 0.00 0.00 27 1013.8
20260901001717 92 167 4.0 13.0 0.00 0.00 0.00 27 1013.6
20260901001212 92 196 7.0 13.0 0.00 0.00 0.00 27 1013.9
20260901000708 92 180 9.0 12.0 0.00 0.00 0.00 26 1014.0
20260901000203 93 194 11.0 15.0 0.00 0.00 0.00 27 1013.8
20260831235656 93 176 5.0 7.0 0.00 0.00 0.00 26 1013.9
20260831235152 93 180 9.0 14.0 0.00 0.00 0.00 26 1013.9
20260831234651 93 130 8.0 16.0 0.00 0.00 0.00 26 1013.8
20260831234147 93 149 12.0 14.0 0.00 0.00 0.00 25 1014.0
20260831233642 93 178 6.0 13.0 0.00 0.00 0.00 25 1013.6
20260831233137 93 181 5.0 15.0 0.00 0.00 0.00 25 1013.7
20260831232632 94 165 6.0 15.0 0.00 0.00 0.00 25 1013.9
20260831232129 94 181 5.0 11.0 0.00 0.00 0.00 25 1013.8
20260831231624 94 177 4.0 11.0 0.00 0.00 0.00 25 1014.1
20260831231120 94 139 12.0 28.0 0.00 0.00 0.00 25 1013.9
20260831230615 94 163 4.0 11.0 0.00 0.00 0.00 25 1013.7
20260831230110 94 150 6.0 12.0 0.00 0.00 0.00 25 1014.0
20260831225604 94 187 17.0 17.0 0.00 0.00 0.00 25 1013.8
20260831225059 94 151 7.0 8.0 0.00 0.00 0.00 24 1013.9
20260831224554 94 192 12.0 15.0 0.00 0.00 0.00 25 1014.2
20260831224049 94 195 7.0 11.0 0.00 0.00 0.00 25 1013.9
20260831223545 93 134 11.0 14.0 0.00 0.00 0.00 26 1014.1
20260831223041 93 134 11.0 14.0 0.00 0.00 0.00 26 1014.1
20260831222536 94 151 7.0 9.0 0.00 0.00 0.00 26 1014.3
20260831222031 94 131 11.0 11.0 0.00 0.00 0.00 25 1014.3
20260831221527 94 174 5.0 11.0 0.00 0.00 0.00 25 1014.2
20260831221022 95 165 4.0 7.0 0.00 0.00 0.00 25 1014.2
20260831220517 95 165 4.0 7.0 0.00 0.00 0.00 25 1014.3
20260831220012 95 132 13.0 14.0 0.00 0.00 0.00 26 1014.3
20260831215508 94 216 7.0 10.0 0.00 0.00 0.00 25 1014.1
20260831215003 94 183 7.0 16.0 0.00 0.00 0.00 26 1014.5
20260831214501 94 223 7.0 7.0 0.00 0.00 0.00 25 1014.5
20260831213956 95 192 13.0 16.0 0.00 0.00 0.00 25 1014.5
20260831213453 94 157 10.0 11.0 0.00 0.00 0.00 26 1014.6
20260831212952 94 190 9.0 14.0 0.00 0.00 0.00 26 1014.3
20260831212448 94 163 5.0 9.0 0.00 0.00 0.00 26 1014.3
20260831211943 95 199 10.0 13.0 0.00 0.00 0.00 27 1014.6
20260831211438 94 147 10.0 10.0 0.00 0.00 0.00 27 1014.8
20260831210932 95 196 6.0 14.0 0.00 0.00 0.00 26 1015.1
20260831210427 94 201 9.0 12.0 0.00 0.00 0.00 26 1015.0
20260831205923 94 211 7.0 11.0 0.00 0.00 0.00 27 1015.0
20260831205418 94 170 8.0 10.0 0.00 0.00 0.00 26 1015.0
20260831204913 94 178 6.0 14.0 0.00 0.00 0.00 25 1015.1
20260831204412 94 191 7.0 10.0 0.00 0.00 0.00 26 1015.2
20260831203906 94 169 6.0 17.0 0.00 0.00 0.00 25 1015.1
20260831203401 95 148 8.0 13.0 0.00 0.00 0.00 26 1015.1
20260831202858 94 162 6.0 12.0 0.00 0.00 0.00 25 1015.5
20260831202354 94 188 10.0 14.0 0.00 0.00 0.00 26 1015.4
20260831201848 95 128 5.0 10.0 0.00 0.00 0.00 26 1015.4
20260831201347 95 156 10.0 12.0 0.00 0.00 0.00 25 1015.8
20260831200843 94 160 7.0 12.0 0.00 0.00 0.00 26 1015.7
20260831200337 94 140 6.0 10.0 0.00 0.00 0.00 26 1015.7
20260831195833 94 177 6.0 9.0 0.00 0.00 0.00 26 1015.8
20260831195328 93 124 11.0 18.0 0.00 0.00 0.00 26 1015.9
20260831194824 94 142 6.0 8.0 0.00 0.00 0.00 27 1016.0
20260831194319 93 101 1.0 7.0 0.00 0.00 0.00 27 1015.7
20260831193818 92 130 5.0 11.0 0.00 0.00 0.00 27 1015.9
20260831193313 94 115 9.0 15.0 0.00 0.00 0.00 26 1015.9
20260831192809 94 139 6.0 12.0 0.00 0.00 0.00 27 1015.9
20260831192305 94 184 7.0 11.0 0.00 0.00 0.00 26 1016.0
20260831191759 94 199 6.0 10.0 0.00 0.00 0.00 27 1016.2
20260831191255 94 140 5.0 11.0 0.00 0.00 0.00 28 1016.0
20260831190750 93 214 4.0 8.0 0.00 0.00 0.00 28 1016.2
20260831190244 93 201 8.0 13.0 0.00 0.00 0.00 28 1016.4
20260831185738 93 155 11.0 17.0 0.00 0.00 0.00 29 1016.4
20260831185235 92 122 5.0 11.0 0.00 0.00 0.00 29 1016.1
20260831184734 92 157 9.0 9.0 0.00 0.00 0.00 30 1016.6
20260831184230 93 199 8.0 17.0 0.00 0.00 0.00 30 1016.5
20260831183729 92 218 4.0 6.0 0.00 0.00 0.00 30 1016.2
20260831183224 92 227 4.0 11.0 0.00 0.00 0.00 29 1016.7
20260831182723 92 149 7.0 10.0 0.00 0.00 0.00 30 1016.7
20260831182218 92 157 5.0 13.0 0.00 0.00 0.00 30 1016.8
20260831181713 92 218 8.0 9.0 0.00 0.00 0.00 32 1016.9
20260831181208 92 159 6.0 12.0 0.00 0.00 0.00 32 1017.0
20260831180703 91 176 5.0 15.0 0.00 0.00 0.00 32 1016.9
20260831180158 91 187 6.0 10.0 0.00 0.00 0.00 32 1017.0
20260831175657 91 216 10.0 14.0 0.00 0.00 0.00 31 1017.0
20260831175154 91 202 9.0 15.0 0.00 0.00 0.00 33 1017.1
20260831174654 90 246 9.0 13.0 0.00 0.00 0.00 36 1017.0
20260831174149 90 227 17.0 21.0 0.00 0.00 0.00 34 1017.2
20260831173648 90 213 8.0 17.0 0.00 0.00 0.00 35 1017.2
20260831173144 89 229 12.0 15.0 0.00 0.00 0.00 37 1017.2
20260831172643 89 223 12.0 16.0 0.00 0.00 0.00 35 1017.5
20260831172138 89 229 11.0 15.0 0.00 0.00 0.00 36 1017.2
20260831171633 89 217 18.0 21.0 0.00 0.00 0.00 36 1017.4
20260831171131 88 220 6.0 13.0 0.00 0.00 0.00 38 1017.4
20260831170627 88 229 9.0 16.0 0.00 0.00 0.00 38 1017.5
20260831170123 88 211 9.0 15.0 0.00 0.00 0.00 38 1017.6
20260831165613 88 228 12.0 18.0 0.00 0.00 0.00 38 1017.2
20260831165110 87 248 10.0 13.0 0.00 0.00 0.00 40 1017.5
20260831164605 87 214 9.0 14.0 0.00 0.00 0.00 40 1017.4
20260831164101 87 221 15.0 20.0 0.00 0.00 0.00 39 1017.6
20260831163555 87 221 11.0 18.0 0.00 0.00 0.00 39 1017.6
20260831163052 87 210 6.0 15.0 0.00 0.00 0.00 41 1017.6
20260831162550 86 179 9.0 15.0 0.00 0.00 0.00 41 1017.4
20260831162048 86 225 12.0 15.0 0.00 0.00 0.00 42 1017.6
20260831161545 85 215 11.0 16.0 0.00 0.00 0.00 43 1017.5
20260831161041 86 232 8.0 17.0 0.00 0.00 0.00 43 1017.2
20260831160539 85 223 14.0 18.0 0.00 0.00 0.00 43 1017.5
20260831160036 84 224 13.0 20.0 0.00 0.00 0.00 44 1017.4
20260831155530 84 222 17.0 20.0 0.00 0.00 0.00 44 1017.2
20260831155025 84 225 13.0 19.0 0.00 0.00 0.00 44 1017.4
20260831154522 84 221 13.0 18.0 0.00 0.00 0.00 44 1017.1
20260831154021 84 226 15.0 19.0 0.00 0.00 0.00 45 1017.1
20260831153521 83 227 11.0 17.0 0.00 0.00 0.00 46 1017.5
20260831153018 82 234 8.0 19.0 0.00 0.00 0.00 46 1017.5
20260831152513 82 230 9.0 15.0 0.00 0.00 0.00 47 1017.4
20260831152008 82 227 6.0 15.0 0.00 0.00 0.00 47 1017.4
20260831151502 81 231 14.0 15.0 0.00 0.00 0.00 46 1017.4
20260831150956 81 231 11.0 14.0 0.00 0.00 0.00 47 1017.6
20260831150452 81 239 9.0 13.0 0.00 0.00 0.00 48 1017.4
20260831145952 80 232 8.0 12.0 0.00 0.00 0.00 48 1017.4
20260831145447 80 224 4.0 10.0 0.00 0.00 0.00 48 1017.5
20260831144943 79 227 5.0 11.0 0.00 0.00 0.00 48 1017.5
20260831144438 79 237 7.0 8.0 0.00 0.00 0.00 50 1017.4
20260831143934 78 226 5.0 6.0 0.00 0.00 0.00 49 1017.6
20260831143429 78 263 3.0 7.0 0.00 0.00 0.00 51 1017.7
20260831142924 78 233 5.0 6.0 0.00 0.00 0.00 48 1017.5
20260831142420 79 263 2.0 3.0 0.00 0.00 0.00 47 1017.6
20260831141914 78 342 2.0 2.0 0.00 0.00 0.00 48 1017.5
20260831141409 79 240 1.0 2.0 0.00 0.00 0.00 47 1017.5
20260831140904 78 203 4.0 4.0 0.00 0.00 0.00 48 1017.2
20260831140358 78 221 4.0 4.0 0.00 0.00 0.00 48 1017.1
20260831135856 77 165 1.0 2.0 0.00 0.00 0.00 50 1017.1
20260831135351 76 147 0.0 1.0 0.00 0.00 0.00 52 1017.0
20260831134846 76 349 0.0 2.0 0.00 0.00 0.00 52 1017.0
20260831134343 75 203 0.0 2.0 0.00 0.00 0.00 53 1016.8
20260831133842 73 143 1.0 2.0 0.00 0.00 0.00 57 1017.0
20260831133336 72 4 2.0 3.0 0.00 0.00 0.00 60 1016.8
20260831132832 72 328 3.0 5.0 0.00 0.00 0.00 62 1017.1
20260831132327 72 310 1.0 3.0 0.00 0.00 0.00 61 1016.7
20260831131827 71 184 3.0 3.0 0.00 0.00 0.00 62 1016.8
20260831131323 70 159 3.0 4.0 0.00 0.00 0.00 65 1016.7
20260831130818 69 10 0.0 5.0 0.00 0.00 0.00 67 1016.7
20260831130313 69 7 4.0 5.0 0.00 0.00 0.00 65 1016.6
20260831125812 71 20 4.0 4.0 0.00 0.00 0.00 59 1016.2
20260831125308 70 357 2.0 2.0 0.00 0.00 0.00 60 1016.0
20260831124807 69 163 1.0 3.0 0.00 0.00 0.00 62 1016.0
20260831124303 68 216 3.0 4.0 0.00 0.00 0.00 63 1015.9
20260831123758 68 182 3.0 3.0 0.00 0.00 0.00 63 1016.0
20260831123257 68 18 0.0 2.0 0.00 0.00 0.00 63 1015.9
20260831122752 68 61 0.0 0.0 0.00 0.00 0.00 63 1015.8
20260831122248 68 354 0.0 1.0 0.00 0.00 0.00 62 1015.6
20260831121747 68 55 0.0 1.0 0.00 0.00 0.00 61 1015.5
20260831121243 69 322 0.0 2.0 0.00 0.00 0.00 61 1015.6
20260831120738 68 190 0.0 2.0 0.00 0.00 0.00 61 1015.2
20260831120233 68 262 2.0 2.0 0.00 0.00 0.00 62 1015.5
20260831115728 68 286 2.0 3.0 0.00 0.00 0.00 63 1015.0
20260831115225 68 138 2.0 2.0 0.00 0.00 0.00 62 1014.9
20260831114724 68 101 2.0 2.0 0.00 0.00 0.00 61 1015.1
20260831114223 69 330 0.0 2.0 0.00 0.00 0.00 60 1015.0
20260831113719 69 147 0.0 3.0 0.00 0.00 0.00 60 1014.9
20260831113213 68 75 1.0 3.0 0.00 0.00 0.00 61 1014.9
20260831112713 69 66 3.0 3.0 0.00 0.00 0.00 61 1014.7
20260831112208 69 50 0.0 2.0 0.00 0.00 0.00 60 1014.6
20260831111704 69 129 1.0 3.0 0.00 0.00 0.00 59 1014.8
20260831111200 70 145 2.0 3.0 0.00 0.00 0.00 58 1014.6
20260831110655 70 197 1.0 4.0 0.00 0.00 0.00 57 1014.6
20260831110150 70 121 3.0 5.0 0.00 0.00 0.00 56 1014.5
20260831105649 70 159 4.0 5.0 0.00 0.00 0.00 56 1014.5
20260831105144 70 152 5.0 7.0 0.00 0.00 0.00 56 1014.6
20260831104639 70 148 4.0 5.0 0.00 0.00 0.00 56 1014.8
20260831104136 71 146 4.0 6.0 0.00 0.00 0.00 55 1014.5
20260831103631 71 163 4.0 6.0 0.00 0.00 0.00 55 1014.6
20260831103126 71 172 2.0 6.0 0.00 0.00 0.00 55 1014.6
20260831102621 71 180 5.0 5.0 0.00 0.00 0.00 54 1014.8
20260831102116 72 164 3.0 7.0 0.00 0.00 0.00 53 1014.7
20260831101616 73 159 7.0 9.0 0.00 0.00 0.00 52 1014.7
20260831101112 72 180 5.0 7.0 0.00 0.00 0.00 52 1014.6
20260831100608 73 176 5.0 5.0 0.00 0.00 0.00 52 1014.6
20260831100104 74 174 3.0 5.0 0.00 0.00 0.00 50 1014.6
20260831095602 75 186 4.0 7.0 0.00 0.00 0.00 47 1014.6
20260831095057 75 199 5.0 11.0 0.00 0.00 0.00 48 1014.7
20260831094552 74 197 8.0 14.0 0.00 0.00 0.00 49 1014.7
20260831094048 73 212 7.0 10.0 0.00 0.00 0.00 50 1014.6
20260831093543 75 202 5.0 7.0 0.00 0.00 0.00 48 1014.8
20260831093040 74 196 6.0 11.0 0.00 0.00 0.00 48 1014.7
20260831092535 72 214 6.0 7.0 0.00 0.00 0.00 52 1014.8
20260831092031 71 210 3.0 4.0 0.00 0.00 0.00 53 1015.0
20260831091531 71 122 3.0 4.0 0.00 0.00 0.00 55 1014.9
20260831091026 70 93 1.0 2.0 0.00 0.00 0.00 55 1014.9
20260831090521 71 284 4.0 5.0 0.00 0.00 0.00 55 1014.8
20260831090018 72 281 5.0 6.0 0.00 0.00 0.00 53 1014.9
20260831085512 72 262 4.0 5.0 0.00 0.00 0.00 51 1014.9
20260831085007 73 276 4.0 5.0 0.00 0.00 0.00 51 1014.6
20260831084503 73 238 4.0 5.0 0.00 0.00 0.00 50 1014.8
20260831083959 72 226 2.0 5.0 0.00 0.00 0.00 50 1014.6